Погода в Фомкино

Россия / Республика Татарстан     54°24′48″N   50°29′30″E
темп.,
°C
ветер,
м/с
пор.,
м/с
влажн.,
%
обл.,
%
осадки,
мм/ч
давл.,
гПа
погр.,
м
13 апреля, вт
вт1300:00+7в379789 0.0 1036139
03:00+7вюв359461 0.0 103672
06:00+8юв238967 0.0 103665
09:00+13ююв356977 0.0 1036352
12:00+17ююв455640 0.0 1035769
15:00+19ююв455443 0.0 10331055
18:00+16юв33705 0.0 103248
21:00+12ююв337710 0.0 103347
14 апреля, ср
ср1400:00+10ююв33775 0.0 103246
03:00+8ююв33755 0.0 103223
06:00+8юв348712 0.0 103194
09:00+13юв467255 0.0 1030468
12:00+16юв46585 0.0 1029879
15:00+18юв45495 0.0 10271121
18:00+15юв35630 0.0 102587
21:00+12юв34750 0.0 102561
15 апреля, чт
чт1500:00+10ююв33820 0.0 102437
03:00+8ююв33830 0.0 102429
06:00+8юв24790 0.0 102387
09:00+14ююв35570 0.0 1022428
12:00+17ююв454611 0.0 1021980
15:00+19ююз35430 0.0 10191628
18:00+16ююз12570 0.0 101811
21:00+13в00650 0.0 101810
16 апреля, пт
пт1600:00+11в017213 0.0 101710
03:00+10с11789 0.0 101710
06:00+10ссв22788 0.0 101617
09:00+15с23560 0.0 1016472
12:00+18ссз34451 0.0 10161511
15:00+18с544537 0.0 10161844
18:00+12ссв711735 0.4 1017537
21:00+9св6117643 0.4 1019543
17 апреля, сб
сб1700:00+7ссв6117616 0.0 1020537
03:00+4ссв510800 0.0 1021429
06:00+4ссв511752 0.0 1022531
09:00+8ссв69472 0.0 10221329
12:00+10с79375 0.0 10231810
15:00+9с910341 0.0 10241850
18:00+6ссв610375 0.0 10261477
21:00+3ссв511400 0.0 1028475